SRR238 EGCC-LEBL

Flight info

Callsign SRR238
Flight time 2h 11m
Altitude 33000
Route LISTO P18 TELBA L151 KIDLI UN859 SOPIL DCT BALAN DCT EVPOK DCT NARAK DCT GAI DCT LOMRA DCT ROCAN DCT PUMAL
Aircraft B77L/H-SDE1E2E3FGHIJ2J3J4J5M1RWXY/LB1D1

Departure

Time 2026-05-06 09:27
Airport Manchester Airport (EGCC)

Arrival

Time 2026-05-06 11:38
Airport Josep Tarradellas Barcelona-El Prat Airport (LEBL)
Time Latitude Longitude Altitude Speed Heading
2026-05-06 09:05 53.36398 -2.28604 252 ft 0 kts 225°
2026-05-06 09:11 53.36398 -2.28603 252 ft 0 kts 225°
2026-05-06 09:12 53.36408 -2.28588 252 ft 3 kts 225°
2026-05-06 09:12 53.36424 -2.28569 252 ft 3 kts 186°
2026-05-06 09:12 53.36443 -2.28572 252 ft 3 kts 144°
2026-05-06 09:12 53.36446 -2.28576 252 ft 0 kts 139°
2026-05-06 09:15 53.36440 -2.28567 252 ft 2 kts 139°
2026-05-06 09:15 53.36429 -2.28551 252 ft 2 kts 138°
2026-05-06 09:15 53.36415 -2.28530 252 ft 4 kts 139°
2026-05-06 09:16 53.36358 -2.28469 252 ft 11 kts 148°
2026-05-06 09:16 53.36329 -2.28431 252 ft 11 kts 137°
2026-05-06 09:16 53.36307 -2.28398 252 ft 10 kts 137°
2026-05-06 09:16 53.36253 -2.28307 252 ft 12 kts 133°
2026-05-06 09:17 53.36206 -2.28232 252 ft 12 kts 136°
2026-05-06 09:17 53.36177 -2.28186 252 ft 12 kts 135°
2026-05-06 09:18 53.36134 -2.28114 252 ft 12 kts 136°
2026-05-06 09:18 53.36100 -2.28058 252 ft 12 kts 135°
2026-05-06 09:18 53.36039 -2.27956 252 ft 12 kts 136°
2026-05-06 09:19 53.35974 -2.27862 252 ft 12 kts 154°
2026-05-06 09:19 53.35889 -2.27851 252 ft 12 kts 186°
2026-05-06 09:19 53.35820 -2.27863 252 ft 12 kts 185°
2026-05-06 09:20 53.35761 -2.27872 251 ft 13 kts 186°
2026-05-06 09:20 53.35674 -2.27887 251 ft 13 kts 188°
2026-05-06 09:20 53.35598 -2.27961 248 ft 14 kts 226°
2026-05-06 09:20 53.35525 -2.28087 244 ft 15 kts 217°
2026-05-06 09:21 53.35431 -2.28154 243 ft 15 kts 190°
2026-05-06 09:21 53.35412 -2.28159 243 ft 15 kts 188°
2026-05-06 09:21 53.35314 -2.28194 241 ft 15 kts 201°
2026-05-06 09:21 53.35228 -2.28305 238 ft 16 kts 229°
2026-05-06 09:22 53.35158 -2.28453 238 ft 16 kts 231°
2026-05-06 09:22 53.35087 -2.28601 237 ft 16 kts 232°
2026-05-06 09:22 53.35011 -2.28744 240 ft 16 kts 225°
2026-05-06 09:22 53.34931 -2.28880 235 ft 17 kts 230°
2026-05-06 09:23 53.34844 -2.29044 227 ft 21 kts 230°
2026-05-06 09:23 53.34765 -2.29202 217 ft 18 kts 230°
2026-05-06 09:23 53.34687 -2.29318 221 ft 11 kts 204°
2026-05-06 09:23 53.34681 -2.29322 214 ft 0 kts 202°
2026-05-06 09:25 53.34680 -2.29322 214 ft 2 kts 202°
2026-05-06 09:26 53.34635 -2.29340 221 ft 8 kts 185°
2026-05-06 09:26 53.34583 -2.29326 216 ft 8 kts 158°
2026-05-06 09:26 53.34548 -2.29262 223 ft 8 kts 107°
2026-05-06 09:26 53.34567 -2.29174 224 ft 12 kts 58°
2026-05-06 09:27 53.34712 -2.28872 227 ft 71 kts 52°
2026-05-06 09:27 53.35230 -2.27795 254 ft 167 kts 52°
2026-05-06 09:27 53.36092 -2.26024 747 ft 213 kts 47°
2026-05-06 09:27 53.37094 -2.24048 1726 ft 229 kts 47°
2026-05-06 09:28 53.38130 -2.21963 2687 ft 234 kts 57°
2026-05-06 09:28 53.38738 -2.19362 3206 ft 251 kts 83°
2026-05-06 09:28 53.38525 -2.16368 3543 ft 269 kts 122°
2026-05-06 09:28 53.37262 -2.14166 4330 ft 263 kts 155°
2026-05-06 09:29 53.35531 -2.13226 4862 ft 261 kts 181°
2026-05-06 09:29 53.33787 -2.13915 4898 ft 261 kts 216°
2026-05-06 09:29 53.32601 -2.16099 4922 ft 256 kts 240°
2026-05-06 09:29 53.31570 -2.18490 4896 ft 255 kts 219°
2026-05-06 09:30 53.29906 -2.19417 5555 ft 261 kts 182°
2026-05-06 09:30 53.28074 -2.19155 6260 ft 267 kts 179°
2026-05-06 09:30 53.26196 -2.18985 6960 ft 273 kts 178°
2026-05-06 09:30 53.24291 -2.18779 7856 ft 275 kts 182°
2026-05-06 09:31 53.22371 -2.18822 8779 ft 277 kts 185°
2026-05-06 09:31 53.20434 -2.19020 9562 ft 281 kts 187°
2026-05-06 09:31 53.18495 -2.19271 9928 ft 284 kts 188°
2026-05-06 09:31 53.16553 -2.19811 9917 ft 283 kts 197°
2026-05-06 09:32 53.14649 -2.20728 9921 ft 287 kts 199°
2026-05-06 09:32 53.12687 -2.21756 10134 ft 307 kts 200°
2026-05-06 09:32 53.10561 -2.22899 10360 ft 336 kts 200°
2026-05-06 09:32 53.08251 -2.24150 10691 ft 357 kts 199°
2026-05-06 09:33 53.05785 -2.25114 11319 ft 370 kts 190°
2026-05-06 09:33 53.03215 -2.25482 12166 ft 377 kts 186°
2026-05-06 09:33 53.00550 -2.25822 13060 ft 381 kts 187°
2026-05-06 09:33 52.97897 -2.26254 13931 ft 385 kts 188°
2026-05-06 09:34 52.95216 -2.26726 14755 ft 390 kts 188°
2026-05-06 09:34 52.92534 -2.27208 15550 ft 395 kts 188°
2026-05-06 09:34 52.89787 -2.27709 16328 ft 400 kts 188°
2026-05-06 09:34 52.86999 -2.28214 17083 ft 404 kts 188°
2026-05-06 09:35 52.84189 -2.28720 17813 ft 409 kts 188°
2026-05-06 09:35 52.81347 -2.29229 18516 ft 413 kts 188°
2026-05-06 09:35 52.78464 -2.29746 19209 ft 418 kts 188°
2026-05-06 09:35 52.76545 -2.30090 19652 ft 420 kts 188°
2026-05-06 09:36 52.73618 -2.30612 20327 ft 425 kts 188°
2026-05-06 09:36 52.70668 -2.31135 20963 ft 427 kts 187°
2026-05-06 09:36 52.67683 -2.31176 21353 ft 436 kts 174°
2026-05-06 09:36 52.64723 -2.29850 21846 ft 446 kts 158°
2026-05-06 09:37 52.62015 -2.27338 22530 ft 446 kts 147°
2026-05-06 09:37 52.59474 -2.24359 22965 ft 452 kts 147°
2026-05-06 09:37 52.56856 -2.21403 23421 ft 458 kts 148°
2026-05-06 09:37 52.54230 -2.18517 23996 ft 461 kts 148°
2026-05-06 09:38 52.51602 -2.15645 24254 ft 444 kts 148°
2026-05-06 09:38 52.49079 -2.12890 24204 ft 427 kts 148°
2026-05-06 09:38 52.46651 -2.10240 24186 ft 411 kts 148°
2026-05-06 09:38 52.44312 -2.07692 24158 ft 395 kts 148°
2026-05-06 09:39 52.42058 -2.05239 24128 ft 380 kts 148°
2026-05-06 09:39 52.39890 -2.02880 24103 ft 365 kts 148°
2026-05-06 09:39 52.37814 -2.00622 24049 ft 354 kts 149°
2026-05-06 09:39 52.35723 -1.98376 24085 ft 374 kts 149°
2026-05-06 09:40 52.33505 -1.96004 24359 ft 385 kts 148°
2026-05-06 09:40 52.31249 -1.93537 24406 ft 398 kts 148°
2026-05-06 09:40 52.26444 -1.88322 24658 ft 431 kts 148°
2026-05-06 09:41 52.23892 -1.85586 24782 ft 447 kts 148°
2026-05-06 09:41 52.21250 -1.82768 24946 ft 460 kts 148°
2026-05-06 09:41 52.18537 -1.79876 25244 ft 469 kts 148°
2026-05-06 09:41 52.15786 -1.76941 25686 ft 474 kts 148°
2026-05-06 09:42 52.13012 -1.73986 26268 ft 476 kts 148°
2026-05-06 09:42 52.10232 -1.71031 26811 ft 478 kts 148°
2026-05-06 09:42 52.07472 -1.68108 27261 ft 482 kts 148°
2026-05-06 09:42 52.04635 -1.65123 27685 ft 486 kts 149°
2026-05-06 09:43 52.01786 -1.62143 28102 ft 484 kts 149°
2026-05-06 09:43 51.99023 -1.59222 28053 ft 466 kts 148°
2026-05-06 09:43 51.96299 -1.56320 27973 ft 474 kts 148°
2026-05-06 09:43 51.94620 -1.54533 27995 ft 481 kts 148°
2026-05-06 09:44 51.91782 -1.51520 28187 ft 491 kts 148°
2026-05-06 09:44 51.88899 -1.48473 28533 ft 495 kts 149°
2026-05-06 09:44 51.88187 -1.47741 28651 ft 496 kts 150°
2026-05-06 09:44 51.85918 -1.45629 29001 ft 496 kts 155°
2026-05-06 09:45 51.82764 -1.43343 29446 ft 495 kts 159°
2026-05-06 09:45 51.79574 -1.41207 29863 ft 497 kts 159°
2026-05-06 09:45 51.76864 -1.39353 30236 ft 498 kts 158°
2026-05-06 09:45 51.73681 -1.37134 30752 ft 496 kts 158°
2026-05-06 09:46 51.70504 -1.34892 31265 ft 495 kts 158°
2026-05-06 09:46 51.67359 -1.32659 31741 ft 494 kts 158°
2026-05-06 09:46 51.64535 -1.30652 32147 ft 493 kts 158°
2026-05-06 09:46 51.61393 -1.28420 32573 ft 492 kts 158°
2026-05-06 09:47 51.58305 -1.26232 32940 ft 493 kts 158°
2026-05-06 09:47 51.55139 -1.23997 32907 ft 499 kts 158°
2026-05-06 09:47 51.48810 -1.19540 32912 ft 493 kts 158°
2026-05-06 09:48 51.42560 -1.15152 32913 ft 490 kts 158°
2026-05-06 09:48 51.36316 -1.10783 32915 ft 489 kts 158°
2026-05-06 09:49 51.30049 -1.06413 33085 ft 494 kts 158°
2026-05-06 09:49 51.26897 -1.04219 33538 ft 492 kts 158°
2026-05-06 09:49 51.23774 -1.02046 34012 ft 489 kts 158°
2026-05-06 09:50 51.20693 -0.99908 34411 ft 488 kts 158°
2026-05-06 09:50 51.17541 -0.97723 34736 ft 488 kts 158°
2026-05-06 09:50 51.14458 -0.95590 34855 ft 492 kts 158°
2026-05-06 09:50 51.11305 -0.93413 34900 ft 493 kts 158°
2026-05-06 09:51 51.05024 -0.89082 34906 ft 487 kts 158°
2026-05-06 09:51 50.98825 -0.84819 34916 ft 485 kts 158°
2026-05-06 09:52 50.92629 -0.80572 34918 ft 485 kts 158°
2026-05-06 09:52 50.86444 -0.76314 34919 ft 485 kts 156°
2026-05-06 09:53 50.80655 -0.70892 34926 ft 488 kts 148°
2026-05-06 09:53 50.74979 -0.64973 34916 ft 488 kts 148°
2026-05-06 09:54 50.69260 -0.59160 34920 ft 489 kts 149°
2026-05-06 09:54 50.63529 -0.53374 34918 ft 489 kts 149°
2026-05-06 09:55 50.57830 -0.47629 34919 ft 490 kts 149°
2026-05-06 09:55 50.52079 -0.41843 34918 ft 490 kts 149°
2026-05-06 09:56 50.46338 -0.36081 34918 ft 490 kts 149°
2026-05-06 09:56 50.40578 -0.30319 34919 ft 490 kts 149°
2026-05-06 09:57 50.34821 -0.24576 34917 ft 490 kts 149°
2026-05-06 09:57 50.29097 -0.18881 34918 ft 490 kts 149°
2026-05-06 09:58 50.23343 -0.13174 34918 ft 489 kts 149°
2026-05-06 09:58 50.17585 -0.07477 34918 ft 489 kts 149°
2026-05-06 09:59 50.11813 -0.01981 34909 ft 488 kts 155°
2026-05-06 09:59 50.05529 0.01896 34915 ft 484 kts 167°
2026-05-06 10:00 49.98984 0.04326 34918 ft 484 kts 168°
2026-05-06 10:00 49.92445 0.06864 34920 ft 484 kts 167°
2026-05-06 10:01 49.85914 0.09436 34919 ft 484 kts 167°
2026-05-06 10:01 49.79377 0.11993 34918 ft 484 kts 167°
2026-05-06 10:02 49.72830 0.14541 34918 ft 485 kts 167°
2026-05-06 10:02 49.66327 0.17074 34921 ft 485 kts 167°
2026-05-06 10:03 49.59789 0.19722 34919 ft 485 kts 167°
2026-05-06 10:03 49.53257 0.22386 34921 ft 485 kts 167°
2026-05-06 10:04 49.46709 0.25033 34919 ft 486 kts 167°
2026-05-06 10:04 49.40202 0.27649 34918 ft 485 kts 167°
2026-05-06 10:05 49.33664 0.30273 34920 ft 485 kts 167°
2026-05-06 10:05 49.27130 0.32928 34918 ft 486 kts 166°
2026-05-06 10:06 49.20613 0.35684 34920 ft 486 kts 166°
2026-05-06 10:06 49.14097 0.38439 34919 ft 486 kts 166°
2026-05-06 10:07 49.07611 0.41158 34919 ft 486 kts 166°
2026-05-06 10:07 49.01088 0.43879 34918 ft 486 kts 166°
2026-05-06 10:08 48.94557 0.46595 34919 ft 486 kts 166°
2026-05-06 10:08 48.88030 0.49304 34920 ft 486 kts 166°
2026-05-06 10:09 48.81539 0.51992 34916 ft 486 kts 166°
2026-05-06 10:09 48.75005 0.54641 34918 ft 486 kts 167°
2026-05-06 10:10 48.68440 0.57186 34919 ft 486 kts 167°
2026-05-06 10:10 48.61873 0.59734 34918 ft 487 kts 167°
2026-05-06 10:11 48.55344 0.62277 34920 ft 487 kts 167°
2026-05-06 10:11 48.48788 0.64853 34917 ft 487 kts 167°
2026-05-06 10:12 48.42233 0.67533 34915 ft 487 kts 166°
2026-05-06 10:12 48.35741 0.70182 34921 ft 486 kts 167°
2026-05-06 10:13 48.29205 0.72825 34916 ft 486 kts 167°
2026-05-06 10:13 48.22673 0.75448 34919 ft 485 kts 167°
2026-05-06 10:14 48.16131 0.78023 34916 ft 486 kts 167°
2026-05-06 10:14 48.09593 0.80584 34921 ft 485 kts 167°
2026-05-06 10:15 48.03092 0.83131 34915 ft 486 kts 167°
2026-05-06 10:15 47.96555 0.85689 34917 ft 485 kts 167°
2026-05-06 10:16 47.90020 0.88240 34919 ft 485 kts 167°
2026-05-06 10:16 47.83483 0.90783 34920 ft 485 kts 167°
2026-05-06 10:17 47.76938 0.93318 34918 ft 485 kts 167°
2026-05-06 10:17 47.70400 0.95842 34917 ft 485 kts 167°
2026-05-06 10:18 47.63902 0.98347 34917 ft 485 kts 167°
2026-05-06 10:18 47.57350 1.00866 34918 ft 485 kts 167°
2026-05-06 10:19 47.50815 1.03373 34919 ft 485 kts 167°
2026-05-06 10:19 47.44247 1.05730 34912 ft 484 kts 172°
2026-05-06 10:20 47.37606 1.06421 34916 ft 480 kts 184°
2026-05-06 10:20 47.30919 1.06113 34918 ft 481 kts 183°
2026-05-06 10:21 47.24214 1.05961 34921 ft 481 kts 182°
2026-05-06 10:21 47.17520 1.05828 34918 ft 481 kts 182°
2026-05-06 10:22 47.10820 1.05683 34921 ft 481 kts 182°
2026-05-06 10:22 47.04155 1.05533 34918 ft 482 kts 182°
2026-05-06 10:23 46.97441 1.05321 34919 ft 482 kts 183°
2026-05-06 10:23 46.90741 1.05005 34918 ft 482 kts 184°
2026-05-06 10:24 46.84039 1.04696 34919 ft 482 kts 183°
2026-05-06 10:24 46.78462 1.04452 34919 ft 481 kts 183°
2026-05-06 10:25 46.71752 1.04164 34919 ft 481 kts 183°
2026-05-06 10:25 46.65048 1.03876 34916 ft 481 kts 183°
2026-05-06 10:26 46.58390 1.03591 34918 ft 481 kts 183°
2026-05-06 10:26 46.51684 1.03614 34913 ft 483 kts 176°
2026-05-06 10:27 46.45071 1.05388 34925 ft 484 kts 167°
2026-05-06 10:27 46.38507 1.07695 34917 ft 485 kts 168°
2026-05-06 10:28 46.31932 1.09891 34916 ft 485 kts 169°
2026-05-06 10:28 46.25394 1.12054 34920 ft 485 kts 169°
2026-05-06 10:29 46.18802 1.14237 34918 ft 486 kts 169°
2026-05-06 10:29 46.12211 1.16419 34920 ft 486 kts 169°
2026-05-06 10:30 46.05608 1.18600 35685 ft 487 kts 168°
2026-05-06 10:30 45.99076 1.20751 35506 ft 478 kts 169°
2026-05-06 10:31 45.95869 1.21807 35217 ft 480 kts 168°
2026-05-06 10:31 45.92602 1.22880 34940 ft 481 kts 169°
2026-05-06 10:31 45.86091 1.25016 34840 ft 480 kts 169°
2026-05-06 10:32 45.79560 1.27151 34840 ft 482 kts 168°
2026-05-06 10:32 45.73013 1.29287 34836 ft 483 kts 168°
2026-05-06 10:33 45.66458 1.31423 34832 ft 484 kts 169°
2026-05-06 10:33 45.59928 1.33543 34832 ft 484 kts 169°
2026-05-06 10:34 45.53353 1.35674 34829 ft 484 kts 169°
2026-05-06 10:34 45.46777 1.37801 34832 ft 484 kts 169°
2026-05-06 10:35 45.40219 1.39914 34840 ft 483 kts 169°
2026-05-06 10:35 45.33656 1.42026 34843 ft 482 kts 169°
2026-05-06 10:36 45.27147 1.44116 34858 ft 482 kts 169°
2026-05-06 10:36 45.20585 1.46218 34867 ft 482 kts 169°
2026-05-06 10:37 45.14036 1.48312 34856 ft 482 kts 169°
2026-05-06 10:37 45.07527 1.50387 34874 ft 482 kts 169°
2026-05-06 10:38 45.00965 1.52475 34863 ft 483 kts 169°
2026-05-06 10:38 44.94403 1.54558 34849 ft 483 kts 170°
2026-05-06 10:39 44.87848 1.56633 34849 ft 482 kts 170°
2026-05-06 10:39 44.81332 1.58690 34869 ft 483 kts 170°
2026-05-06 10:40 44.74768 1.60758 34858 ft 483 kts 170°
2026-05-06 10:40 44.68209 1.62822 34860 ft 482 kts 170°
2026-05-06 10:41 44.61659 1.64878 34862 ft 481 kts 170°
2026-05-06 10:41 44.55157 1.66914 34854 ft 481 kts 170°
2026-05-06 10:42 44.48617 1.68955 34863 ft 480 kts 170°
2026-05-06 10:42 44.42077 1.70994 34871 ft 480 kts 170°
2026-05-06 10:43 44.35605 1.73005 34864 ft 479 kts 171°
2026-05-06 10:44 44.25824 1.75764 34882 ft 476 kts 174°
2026-05-06 10:44 44.19275 1.77166 34870 ft 476 kts 174°
2026-05-06 10:45 44.12733 1.78594 34871 ft 475 kts 174°
2026-05-06 10:45 44.06235 1.80023 34885 ft 475 kts 174°
2026-05-06 10:46 43.99685 1.81462 34864 ft 475 kts 175°
2026-05-06 10:46 43.93146 1.82759 34873 ft 473 kts 179°
2026-05-06 10:47 43.86596 1.83369 34888 ft 472 kts 180°
2026-05-06 10:47 43.80036 1.83919 34882 ft 472 kts 180°
2026-05-06 10:48 43.73485 1.84527 34888 ft 471 kts 180°
2026-05-06 10:48 43.66989 1.85157 34888 ft 471 kts 180°
2026-05-06 10:49 43.60460 1.85793 34873 ft 470 kts 181°
2026-05-06 10:49 43.53956 1.86422 34879 ft 468 kts 181°
2026-05-06 10:50 43.47448 1.87047 34880 ft 467 kts 181°
2026-05-06 10:50 43.40960 1.87672 34857 ft 466 kts 181°
2026-05-06 10:51 43.40653 1.87701 34857 ft 466 kts 181°
2026-05-06 11:12 43.39503 1.87811 34860 ft 466 kts 181°
2026-05-06 11:13 43.33043 1.88430 34875 ft 464 kts 181°
2026-05-06 11:13 43.26636 1.89046 34876 ft 463 kts 181°
2026-05-06 11:13 43.23393 1.89358 34459 ft 470 kts 181°
2026-05-06 11:14 43.20094 1.89671 33653 ft 475 kts 181°
2026-05-06 11:14 43.16797 1.89987 32809 ft 474 kts 181°
2026-05-06 11:14 43.13539 1.90305 32271 ft 466 kts 182°
2026-05-06 11:14 43.11401 1.90513 31882 ft 462 kts 182°
2026-05-06 11:15 43.08215 1.90821 31327 ft 456 kts 182°
2026-05-06 11:15 43.05063 1.91123 30760 ft 451 kts 182°
2026-05-06 11:15 43.01951 1.91422 30232 ft 445 kts 183°
2026-05-06 11:15 42.97887 1.91808 29422 ft 438 kts 182°
2026-05-06 11:16 42.95838 1.92003 29072 ft 434 kts 182°
2026-05-06 11:16 42.92883 1.92284 28536 ft 429 kts 182°
2026-05-06 11:16 42.89919 1.92566 27980 ft 424 kts 182°
2026-05-06 11:16 42.86986 1.92843 27483 ft 420 kts 182°
2026-05-06 11:17 42.84081 1.93118 26942 ft 416 kts 182°
2026-05-06 11:17 42.81204 1.93389 26425 ft 413 kts 182°
2026-05-06 11:17 42.78347 1.93660 25937 ft 410 kts 181°
2026-05-06 11:17 42.75509 1.93928 25417 ft 407 kts 181°
2026-05-06 11:18 42.72691 1.94194 24933 ft 404 kts 181°
2026-05-06 11:18 42.69894 1.94456 24430 ft 402 kts 181°
2026-05-06 11:18 42.67104 1.94730 23958 ft 400 kts 179°
2026-05-06 11:18 42.64384 1.95164 23495 ft 398 kts 176°
2026-05-06 11:19 42.61648 1.95725 22960 ft 397 kts 175°
2026-05-06 11:19 42.58928 1.96311 22422 ft 395 kts 176°
2026-05-06 11:19 42.56222 1.96886 21975 ft 391 kts 176°
2026-05-06 11:19 42.53547 1.97440 21486 ft 388 kts 176°
2026-05-06 11:20 42.50879 1.97981 21022 ft 386 kts 176°
2026-05-06 11:20 42.48224 1.98513 20557 ft 384 kts 176°
2026-05-06 11:20 42.45580 1.99035 20092 ft 383 kts 176°
2026-05-06 11:20 42.42946 1.99560 19649 ft 381 kts 176°
2026-05-06 11:21 42.40341 2.00079 19357 ft 375 kts 175°
2026-05-06 11:21 42.37783 2.00590 19200 ft 366 kts 176°
2026-05-06 11:21 42.35280 2.01045 18867 ft 362 kts 178°
2026-05-06 11:21 42.32806 2.01358 18469 ft 361 kts 179°
2026-05-06 11:22 42.30297 2.01637 18031 ft 361 kts 179°
2026-05-06 11:22 42.27796 2.01919 17574 ft 361 kts 178°
2026-05-06 11:22 42.25300 2.02211 17135 ft 360 kts 178°
2026-05-06 11:22 42.22811 2.02512 16715 ft 359 kts 178°
2026-05-06 11:23 42.20326 2.02814 16298 ft 358 kts 178°
2026-05-06 11:23 42.17856 2.03124 15886 ft 356 kts 178°
2026-05-06 11:23 42.15383 2.03425 15468 ft 355 kts 178°
2026-05-06 11:23 42.12922 2.03717 15061 ft 354 kts 178°
2026-05-06 11:24 42.10471 2.04009 14654 ft 354 kts 178°
2026-05-06 11:24 42.08017 2.04304 14254 ft 353 kts 178°
2026-05-06 11:24 42.05590 2.04596 13853 ft 353 kts 178°
2026-05-06 11:24 42.03146 2.04888 13422 ft 353 kts 178°
2026-05-06 11:25 42.00700 2.05182 12979 ft 352 kts 178°
2026-05-06 11:25 41.98255 2.05474 12547 ft 350 kts 178°
2026-05-06 11:25 41.95874 2.05761 12135 ft 338 kts 178°
2026-05-06 11:25 41.93552 2.06040 11778 ft 334 kts 178°
2026-05-06 11:26 41.91240 2.06313 11398 ft 334 kts 178°
2026-05-06 11:26 41.88928 2.06588 11020 ft 334 kts 178°
2026-05-06 11:26 41.86610 2.06859 10635 ft 334 kts 178°
2026-05-06 11:26 41.84302 2.07130 10420 ft 329 kts 178°
2026-05-06 11:27 41.82049 2.07404 10282 ft 322 kts 178°
2026-05-06 11:27 41.79842 2.07671 10137 ft 315 kts 178°
2026-05-06 11:27 41.77698 2.07929 9990 ft 301 kts 178°
2026-05-06 11:27 41.75675 2.08170 9855 ft 283 kts 179°
2026-05-06 11:28 41.73779 2.08397 9583 ft 270 kts 179°
2026-05-06 11:28 41.71945 2.08614 9188 ft 260 kts 179°
2026-05-06 11:28 41.70145 2.08828 8778 ft 259 kts 179°
2026-05-06 11:28 41.68364 2.09040 8533 ft 255 kts 179°
2026-05-06 11:29 41.66599 2.09247 8223 ft 254 kts 178°
2026-05-06 11:29 41.64834 2.09457 7894 ft 254 kts 178°
2026-05-06 11:29 41.63083 2.09665 7656 ft 251 kts 178°
2026-05-06 11:29 41.61347 2.09870 7380 ft 249 kts 178°
2026-05-06 11:30 41.59620 2.10072 7070 ft 249 kts 178°
2026-05-06 11:30 41.57896 2.10275 6755 ft 248 kts 178°
2026-05-06 11:30 41.56178 2.10478 6459 ft 247 kts 178°
2026-05-06 11:30 41.54487 2.10754 6134 ft 243 kts 167°
2026-05-06 11:31 41.52976 2.11719 5786 ft 239 kts 148°
2026-05-06 11:31 41.51640 2.12972 5507 ft 231 kts 144°
2026-05-06 11:31 41.50473 2.14402 5048 ft 232 kts 137°
2026-05-06 11:31 41.49335 2.15902 4807 ft 222 kts 139°
2026-05-06 11:32 41.48265 2.17275 4775 ft 208 kts 137°
2026-05-06 11:32 41.47249 2.18645 4468 ft 205 kts 136°
2026-05-06 11:32 41.46261 2.20044 3975 ft 208 kts 135°
2026-05-06 11:32 41.45294 2.21466 3605 ft 203 kts 133°
2026-05-06 11:33 41.44373 2.22860 3300 ft 198 kts 134°
2026-05-06 11:33 41.43410 2.24173 2880 ft 198 kts 140°
2026-05-06 11:33 41.42425 2.25428 2607 ft 191 kts 140°
2026-05-06 11:33 41.41496 2.26646 2605 ft 193 kts 139°
2026-05-06 11:34 41.40517 2.27900 2538 ft 198 kts 139°
2026-05-06 11:34 41.39509 2.29139 2374 ft 193 kts 146°
2026-05-06 11:34 41.38312 2.29732 2243 ft 181 kts 185°
2026-05-06 11:34 41.37194 2.29096 2216 ft 178 kts 227°
2026-05-06 11:35 41.36585 2.27693 2226 ft 172 kts 244°
2026-05-06 11:35 41.36050 2.26284 2195 ft 166 kts 242°
2026-05-06 11:35 41.35550 2.24908 2183 ft 166 kts 244°
2026-05-06 11:35 41.35066 2.23511 2134 ft 172 kts 245°
2026-05-06 11:36 41.34566 2.22047 1916 ft 175 kts 245°
2026-05-06 11:36 41.34067 2.20591 1668 ft 169 kts 245°
2026-05-06 11:36 41.33591 2.19196 1443 ft 164 kts 245°
2026-05-06 11:36 41.33118 2.17810 1246 ft 165 kts 244°
2026-05-06 11:37 41.32632 2.16393 1002 ft 172 kts 245°
2026-05-06 11:37 41.32139 2.14953 781 ft 171 kts 244°
2026-05-06 11:37 41.31650 2.13524 535 ft 168 kts 244°
2026-05-06 11:37 41.31168 2.12108 312 ft 169 kts 244°
2026-05-06 11:38 41.30683 2.10700 121 ft 168 kts 245°
2026-05-06 11:38 41.30197 2.09285 9 ft 163 kts 245°
2026-05-06 11:38 41.29815 2.08167 9 ft 92 kts 245°
2026-05-06 11:38 41.29623 2.07608 10 ft 35 kts 245°
2026-05-06 11:39 41.29526 2.07326 10 ft 26 kts 245°
2026-05-06 11:39 41.29481 2.07142 7 ft 21 kts 268°
2026-05-06 11:39 41.29580 2.07015 7 ft 21 kts 329°
2026-05-06 11:39 41.29624 2.06876 7 ft 14 kts 277°
2026-05-06 11:40 41.29689 2.06778 7 ft 14 kts 319°
2026-05-06 11:40 41.29732 2.06666 7 ft 15 kts 259°
2026-05-06 11:40 41.29694 2.06542 7 ft 15 kts 244°
2026-05-06 11:40 41.29653 2.06419 7 ft 15 kts 248°
2026-05-06 11:41 41.29668 2.06300 7 ft 15 kts 317°
2026-05-06 11:41 41.29730 2.06305 7 ft 6 kts 41°
2026-05-06 11:41 41.29743 2.06335 7 ft 0 kts 65°